This is the latest recevied weather packets stored in our database for station/object DK4MDA-13. If no packets are shown the sender has not sent any weather packets the latest 1 day(s).
| Time | Temp. | Humidity | Pressure | Rain* | Wind** | Luminosity | Snow |
|---|---|---|---|---|---|---|---|
| 1778062927 | 11.11° C | 94% | 1006.3 hPa | 0 mm | - | - | - |
| 1778062627 | 11.11° C | 93% | 1006.1 hPa | 0 mm | - | - | - |
| 1778061727 | 11.11° C | 94% | 1006.1 hPa | 0 mm | - | - | - |
| 1778060827 | 11.11° C | 94% | 1006 hPa | 0 mm | - | - | - |
| 1778060527 | 11.11° C | 94% | 1006 hPa | 0 mm | - | - | - |
| 1778060227 | 11.11° C | 94% | 1006 hPa | 0 mm | - | - | - |
| 1778059927 | 11.11° C | 93% | 1006.1 hPa | 0 mm | - | - | - |
| 1778056927 | 10.56° C | 95% | 1005.8 hPa | 0.51 mm | - | - | - |
| 1778056627 | 10.56° C | 94% | 1005.7 hPa | 0.51 mm | - | - | - |
| 1778056027 | 10.56° C | 95% | 1005.7 hPa | 0.76 mm | - | - | - |
| 1778054227 | 10.56° C | 95% | 1005.6 hPa | 1.78 mm | - | - | - |
| 1778053927 | 10° C | 95% | 1005.6 hPa | 2.29 mm | - | - | - |
| 1778052427 | 10° C | 95% | 1005.5 hPa | 2.79 mm | - | - | - |
| 1778039828 | 10.56° C | 95% | 1005 hPa | 3.3 mm | - | - | - |
| 1778038928 | 10.56° C | 95% | 1005.2 hPa | 3.05 mm | - | - | - |
| 1778038628 | 10.56° C | 94% | 1005.2 hPa | 3.3 mm | - | - | - |
| 1778038028 | 10.56° C | 95% | 1005.1 hPa | 3.81 mm | - | - | - |
| 1778037728 | 10.56° C | 95% | 1005.3 hPa | 4.32 mm | - | - | - |
| 1778037428 | 10.56° C | 95% | 1005.3 hPa | 4.83 mm | - | - | - |
| 1778037128 | 10.56° C | 95% | 1005.2 hPa | 5.08 mm | - | - | - |
| 1778036828 | 10.56° C | 95% | 1005.3 hPa | 5.59 mm | - | - | - |
| 1778036528 | 10.56° C | 95% | 1005.2 hPa | 6.1 mm | - | - | - |
| 1778036228 | 10.56° C | 95% | 1005.4 hPa | 6.86 mm | - | - | - |
| 1778035928 | 10.56° C | 95% | 1005.4 hPa | 7.37 mm | - | - | - |
| 1778035628 | 10.56° C | 95% | 1005.5 hPa | 7.37 mm | - | - | - |
* Rain latest hour (hover to see other rain measurements)
** Current wind speed in m/s (hover to see current wind gust speed)